Weather in Pervomayskiy

Russia / Sverdlovsk Oblast     56°43′42″N   63°00′49″E
temp.,
°C
wind,
m/s
gust,
m/s
humid.,
%
clouds,
%
prec.,
mm/h
press.,
hPa
HPBL,
m
14 june, mon
mon1423:00+17s466871 0.0 102269
02:00+15ssw46661 0.0 102283
05:00+14s34710 0.0 102255
08:00+19s476081 0.0 1022222
11:00+24ssw694641 0.0 1021754
14:00+25ssw475472 0.0 1020712
17:00+24sw51052100 0.0 1020536
20:00+22ssw496588 0.0 1019189
15 june, tue
tue1523:00+19ssw4116432 0.0 1018160
02:00+17ssw41164100 0.0 1017169
05:00+16sw41070100 0.0 1017171
08:00+21ssw4865100 0.0 1016240
11:00+23w4756100 0.0 1016519
14:00+25w3557100 0.0 1015945
17:00+22nw4871100 0.1 1014302
20:00+19wsw3681100 0.3 1014129
16 june, wed
wed1623:00+17w3684100 0.3 101381
02:00+16w34899 0.0 101462
05:00+15w359323 0.0 101493
08:00+21wnw347513 0.0 1014313
11:00+25wnw235763 0.0 10141033
14:00+27wsw354781 0.0 10132083
17:00+26wnw136372 0.0 1012187
20:00+25sse22650 0.0 101122
17 june, thu
thu1723:00+20s34730 0.0 101049
02:00+17ssw468796 0.3 100993
05:00+17sw478472 0.5 100899
08:00+21ssw467265 0.0 1007257
11:00+21wnw61364100 0.0 1007564
14:00+22wsw466849 0.2 1006578
17:00+21nw6880100 0.8 1005487
20:00+20nnw5117983 0.1 1005790
18 june, fri
fri1823:00+16n81359100 0.1 1008763
02:00+12n812646 0.0 1010869
05:00+9n7137386 0.0 1012783
08:00+11n913553 0.0 10131067
11:00+14n10124350 0.0 10131618
14:00+17n811385 0.0 10132097
17:00+18n711395 0.0 10142552
20:00+15n375567 0.0 1015146